START_TIME,STEP,MOV.,M35,t_acc.,PL05,t_acc.,PL06,t_acc.,PL07,t_acc.
1979-07-26 21:00:23.210 ,0,0,0.,4.8,15.,4.8,0.,4.8,1.,4.8
1979-07-26 21:00:28.010 ,0,0,0.,4.8,12.,4.8,2.,4.8,0.,4.8
1979-07-26 21:00:32.810 ,0,0,0.,4.8,6.,4.8,2.,4.8,0.,4.8
1979-07-26 21:00:37.610 ,0,0,0.,4.8,9.,4.8,0.,4.8,0.,4.8
1979-07-26 21:00:42.410 ,0,0,0.,4.8,8.,4.8,1.,4.8,0.,4.8
1979-07-26 21:00:47.210 ,0,0,0.,4.8,10.,4.8,0.,4.8,0.,4.8
1979-07-26 21:00:52.010 ,0,0,0.,4.8,8.,4.8,0.,4.8,0.,4.8
1979-07-26 21:00:56.810 ,0,0,0.,4.8,6.,4.8,1.,4.8,0.,4.8
1979-07-26 21:01:01.610 ,0,0,0.,4.8,10.,4.8,0.,4.8,0.,4.8
1979-07-26 21:01:06.410 ,0,0,0.,4.8,10.,4.8,0.,4.8,0.,4.8
1979-07-26 21:01:11.210 ,0,0,0.,4.8,13.,4.8,1.,4.8,0.,4.8
1979-07-26 21:01:16.010 ,0,0,0.,4.8,16.,4.8,0.,4.8,0.,4.8
1979-07-26 21:01:20.810 ,0,0,0.,4.8,14.,4.8,1.,4.8,0.,4.8
1979-07-26 21:01:25.610 ,0,0,0.,4.8,14.,4.8,1.,4.8,1.,4.8
1979-07-26 21:01:30.410 ,0,0,0.,4.8,10.,4.8,1.,4.8,1.,4.8
1979-07-26 21:01:35.210 ,1,0,0.,4.8,10.,4.8,2.,4.8,0.,4.8
1979-07-26 21:01:40.010 ,1,0,0.,4.8,4.,4.8,0.,4.8,0.,4.8
1979-07-26 21:01:44.810 ,1,0,0.,4.8,9.,4.8,1.,4.8,0.,4.8
1979-07-26 21:01:49.610 ,1,0,0.,4.8,12.,4.8,0.,4.8,0.,4.8
1979-07-26 21:01:54.410 ,1,0,0.,4.8,6.,4.8,0.,4.8,0.,4.8
1979-07-26 21:01:59.210 ,1,0,0.,4.8,6.,4.8,0.,4.8,0.,4.8
1979-07-26 21:02:04.010 ,1,0,0.,4.8,8.,4.8,1.,4.8,0.,4.8
1979-07-26 21:02:08.810 ,1,0,0.,4.8,6.,4.8,0.,4.8,1.,4.8
1979-07-26 21:02:13.610 ,1,0,0.,4.8,8.,4.8,1.,4.8,0.,4.8
1979-07-26 21:02:18.410 ,1,0,0.,4.8,7.,4.8,0.,4.8,0.,4.8
1979-07-26 21:02:23.200 ,2,0,0.,4.8,8.,4.8,0.,4.8,0.,4.8
1979-07-26 21:02:28.000 ,2,0,0.,4.8,9.,4.8,0.,4.8,2.,4.8
1979-07-26 21:02:32.800 ,2,0,0.,4.8,10.,4.8,0.,4.8,0.,4.8
1979-07-26 21:02:37.600 ,2,0,0.,4.8,7.,4.8,1.,4.8,0.,4.8
1979-07-26 21:02:42.400 ,2,0,0.,4.8,7.,4.8,0.,4.8,0.,4.8
1979-07-26 21:02:47.200 ,2,0,0.,4.8,9.,4.8,1.,4.8,0.,4.8
1979-07-26 21:02:52.000 ,2,0,0.,4.8,7.,4.8,0.,4.8,0.,4.8
1979-07-26 21:02:56.800 ,2,0,0.,4.8,5.,4.8,2.,4.8,0.,4.8
1979-07-26 21:03:01.600 ,2,0,0.,4.8,4.,4.8,2.,4.8,1.,4.8
1979-07-26 21:03:06.410 ,2,0,0.,4.8,5.,4.8,1.,4.8,2.,4.8
1979-07-26 21:03:11.200 ,3,0,0.,4.8,3.,4.8,3.,4.8,1.,4.8
1979-07-26 21:03:16.000 ,3,0,0.,4.8,9.,4.8,4.,4.8,0.,4.8
1979-07-26 21:03:20.800 ,3,0,0.,4.8,8.,4.8,1.,4.8,2.,4.8
1979-07-26 21:03:25.600 ,3,0,0.,4.8,6.,4.8,2.,4.8,0.,4.8
1979-07-26 21:03:30.400 ,3,0,0.,4.8,8.,4.8,3.,4.8,1.,4.8
1979-07-26 21:03:35.200 ,3,0,0.,4.8,4.,4.8,3.,4.8,1.,4.8
1979-07-26 21:03:40.000 ,3,0,0.,4.8,8.,4.8,2.,4.8,1.,4.8
1979-07-26 21:03:44.800 ,3,0,0.,4.8,6.,4.8,1.,4.8,0.,4.8
1979-07-26 21:03:49.600 ,3,0,0.,4.8,4.,4.8,1.,4.8,1.,4.8
1979-07-26 21:03:54.400 ,3,0,0.,4.8,8.,4.8,0.,4.8,0.,4.8
1979-07-26 21:03:59.200 ,4,0,0.,4.8,6.,4.8,2.,4.8,0.,4.8
1979-07-26 21:04:04.000 ,4,0,0.,4.8,8.,4.8,1.,4.8,0.,4.8
1979-07-26 21:04:08.810 ,4,0,0.,4.8,3.,4.8,0.,4.8,0.,4.8
1979-07-26 21:04:13.610 ,4,0,0.,4.8,2.,4.8,0.,4.8,0.,4.8
1979-07-26 21:04:18.400 ,4,0,0.,4.8,5.,4.8,0.,4.8,0.,4.8
1979-07-26 21:04:23.200 ,4,0,0.,4.8,7.,4.8,0.,4.8,0.,4.8
1979-07-26 21:04:28.010 ,4,0,0.,4.8,3.,4.8,1.,4.8,0.,4.8
1979-07-26 21:04:32.800 ,4,0,0.,4.8,0.,4.8,0.,4.8,0.,4.8
1979-07-26 21:04:37.610 ,4,0,0.,4.8,1.,4.8,0.,4.8,0.,4.8
1979-07-26 21:04:42.400 ,4,0,0.,4.8,3.,4.8,0.,4.8,0.,4.8
1979-07-26 21:04:47.200 ,5,0,0.,4.8,5.,4.8,0.,4.8,0.,4.8
1979-07-26 21:04:52.010 ,5,0,0.,4.8,3.,4.8,0.,4.8,0.,4.8
1979-07-26 21:04:56.800 ,5,0,0.,4.8,5.,4.8,1.,4.8,1.,4.8
1979-07-26 21:05:01.610 ,5,0,0.,4.8,0.,4.8,0.,4.8,1.,4.8
1979-07-26 21:05:06.400 ,5,0,0.,4.8,2.,4.8,1.,4.8,1.,4.8
1979-07-26 21:05:11.200 ,5,0,0.,4.8,3.,4.8,0.,4.8,0.,4.8
1979-07-26 21:05:16.010 ,5,0,0.,4.8,0.,4.8,0.,4.8,0.,4.8
1979-07-26 21:05:20.800 ,5,0,0.,4.8,2.,4.8,0.,4.8,0.,4.8
1979-07-26 21:05:25.610 ,5,0,0.,4.8,1.,4.8,0.,4.8,0.,4.8
1979-07-26 21:05:30.400 ,5,0,0.,4.8,3.,4.8,0.,4.8,1.,4.8
1979-07-26 21:05:35.200 ,6,0,0.,4.8,2.,4.8,1.,4.8,0.,4.8
1979-07-26 21:05:40.010 ,6,0,0.,4.8,4.,4.8,0.,4.8,0.,4.8
1979-07-26 21:05:44.800 ,6,0,0.,4.8,3.,4.8,0.,4.8,0.,4.8
1979-07-26 21:05:49.610 ,6,0,0.,4.8,2.,4.8,1.,4.8,0.,4.8
1979-07-26 21:05:54.400 ,6,0,0.,4.8,2.,4.8,0.,4.8,0.,4.8
1979-07-26 21:05:59.200 ,6,0,0.,4.8,5.,4.8,0.,4.8,0.,4.8
1979-07-26 21:06:04.010 ,6,0,0.,4.8,4.,4.8,0.,4.8,1.,4.8
1979-07-26 21:06:08.800 ,6,0,0.,4.8,7.,4.8,0.,4.8,0.,4.8
1979-07-26 21:06:13.610 ,6,0,1.,4.8,4.,4.8,0.,4.8,0.,4.8
1979-07-26 21:06:18.400 ,6,0,0.,4.8,2.,4.8,0.,4.8,0.,4.8
1979-07-26 21:06:23.200 ,7,0,0.,4.8,4.,4.8,0.,4.8,0.,4.8
1979-07-26 21:06:28.010 ,7,0,0.,4.8,4.,4.8,2.,4.8,0.,4.8
1979-07-26 21:06:32.800 ,7,0,0.,4.8,1.,4.8,0.,4.8,0.,4.8
1979-07-26 21:06:37.610 ,7,0,0.,4.8,0.,4.8,0.,4.8,1.,4.8
1979-07-26 21:06:42.400 ,7,0,0.,4.8,1.,4.8,1.,4.8,1.,4.8
1979-07-26 21:06:47.200 ,7,0,0.,4.8,2.,4.8,0.,4.8,0.,4.8
1979-07-26 21:06:52.010 ,7,0,0.,4.8,0.,4.8,0.,4.8,0.,4.8
1979-07-26 21:06:56.800 ,7,0,0.,4.8,0.,4.8,0.,4.8,0.,4.8
1979-07-26 21:07:01.610 ,7,0,0.,4.8,0.,4.8,0.,4.8,0.,4.8
1979-07-26 21:07:06.400 ,7,0,0.,4.8,0.,4.8,0.,4.8,0.,4.8
1979-07-26 21:07:11.200 ,3,1,0.,4.8,1.,4.8,0.,4.8,0.,4.8
1979-07-26 21:07:16.010 ,3,1,0.,4.8,0.,4.8,0.,4.8,0.,4.8
1979-07-26 21:07:20.800 ,3,1,0.,4.8,1.,4.8,0.,4.8,0.,4.8
1979-07-26 21:07:25.610 ,3,1,0.,4.8,4.,4.8,1.,4.8,0.,4.8
1979-07-26 21:07:30.400 ,3,1,0.,4.8,10.,4.8,1.,4.8,0.,4.8
1979-07-26 21:07:35.200 ,0,1,0.,4.8,7.,4.8,2.,4.8,0.,4.8
1979-07-26 21:07:40.010 ,0,1,0.,4.8,3.,4.8,1.,4.8,0.,4.8
1979-07-26 21:07:44.800 ,0,1,0.,4.8,3.,4.8,0.,4.8,0.,4.8
1979-07-26 21:07:49.610 ,0,1,0.,4.8,6.,4.8,0.,4.8,0.,4.8
1979-07-26 21:07:54.400 ,0,1,0.,4.8,6.,4.8,0.,4.8,0.,4.8
1979-07-26 21:07:59.200 ,4,1,0.,4.8,3.,4.8,1.,4.8,0.,4.8
1979-07-26 21:08:04.010 ,4,1,0.,4.8,11.,4.8,0.,4.8,0.,4.8
1979-07-26 21:08:08.800 ,4,1,0.,4.8,6.,4.8,0.,4.8,0.,4.8
1979-07-26 21:08:13.610 ,4,1,0.,4.8,7.,4.8,4.,4.8,1.,4.8
1979-07-26 21:08:18.400 ,4,1,0.,4.8,3.,4.8,2.,4.8,3.,4.8
1979-07-26 21:08:23.200 ,7,1,0.,4.8,4.,4.8,0.,4.8,1.,4.8
1979-07-26 21:08:28.010 ,7,1,0.,4.8,3.,4.8,1.,4.8,0.,4.8
1979-07-26 21:08:32.800 ,7,1,0.,4.8,8.,4.8,1.,4.8,0.,4.8
1979-07-26 21:08:37.600 ,7,1,0.,4.8,0.,4.8,0.,4.8,0.,4.8
1979-07-26 21:08:42.410 ,7,1,0.,4.8,0.,4.8,0.,4.8,0.,4.8
1979-07-26 21:08:47.210 ,3,1,0.,4.8,2.,4.8,0.,4.8,0.,4.8
1979-07-26 21:08:52.010 ,3,1,0.,4.8,6.,4.8,0.,4.8,0.,4.8
1979-07-26 21:08:56.800 ,3,1,0.,4.8,3.,4.8,0.,4.8,0.,4.8
1979-07-26 21:09:01.600 ,3,1,0.,4.8,2.,4.8,0.,4.8,0.,4.8
1979-07-26 21:09:06.410 ,3,1,0.,4.8,5.,4.8,1.,4.8,2.,4.8
1979-07-26 21:09:11.210 ,0,1,0.,4.8,4.,4.8,1.,4.8,0.,4.8
1979-07-26 21:09:16.010 ,0,1,0.,4.8,2.,4.8,0.,4.8,0.,4.8
1979-07-26 21:09:20.800 ,0,1,0.,4.8,10.,4.8,1.,4.8,0.,4.8
1979-07-26 21:09:25.600 ,0,1,0.,4.8,6.,4.8,0.,4.8,0.,4.8
1979-07-26 21:09:30.410 ,0,1,0.,4.8,5.,4.8,0.,4.8,1.,4.8
1979-07-26 21:09:35.210 ,4,1,0.,4.8,5.,4.8,0.,4.8,0.,4.8
1979-07-26 21:09:40.010 ,4,1,0.,4.8,8.,4.8,3.,4.8,0.,4.8
1979-07-26 21:09:44.800 ,4,1,0.,4.8,5.,4.8,2.,4.8,0.,4.8
1979-07-26 21:09:49.600 ,4,1,0.,4.8,5.,4.8,3.,4.8,0.,4.8
1979-07-26 21:09:54.410 ,4,1,0.,4.8,8.,4.8,0.,4.8,0.,4.8
1979-07-26 21:09:59.210 ,7,1,0.,4.8,5.,4.8,1.,4.8,0.,4.8
1979-07-26 21:10:04.010 ,7,1,0.,4.8,2.,4.8,0.,4.8,0.,4.8
1979-07-26 21:10:08.800 ,7,1,0.,4.8,2.,4.8,1.,4.8,0.,4.8
1979-07-26 21:10:13.600 ,7,1,0.,4.8,0.,4.8,1.,4.8,0.,4.8
1979-07-26 21:10:18.410 ,7,1,0.,4.8,1.,4.8,0.,4.8,0.,4.8
1979-07-26 21:10:23.210 ,3,1,0.,4.8,3.,4.8,0.,4.8,0.,4.8
1979-07-26 21:10:28.010 ,3,1,0.,4.8,2.,4.8,0.,4.8,0.,4.8
1979-07-26 21:10:32.800 ,3,1,0.,4.8,2.,4.8,0.,4.8,0.,4.8
1979-07-26 21:10:37.600 ,3,1,0.,4.8,6.,4.8,1.,4.8,0.,4.8
1979-07-26 21:10:42.410 ,3,1,0.,4.8,2.,4.8,1.,4.8,0.,4.8
1979-07-26 21:10:47.210 ,0,1,0.,4.8,2.,4.8,1.,4.8,0.,4.8
1979-07-26 21:10:52.010 ,0,1,0.,4.8,6.,4.8,1.,4.8,0.,4.8
1979-07-26 21:10:56.800 ,0,1,0.,4.8,11.,4.8,0.,4.8,0.,4.8
1979-07-26 21:11:01.600 ,0,1,0.,4.8,7.,4.8,1.,4.8,1.,4.8
1979-07-26 21:11:06.410 ,0,1,0.,4.8,12.,4.8,0.,4.8,1.,4.8
1979-07-26 21:11:11.210 ,4,1,0.,4.8,5.,4.8,0.,4.8,1.,4.8
1979-07-26 21:11:16.010 ,4,1,0.,4.8,3.,4.8,0.,4.8,0.,4.8
1979-07-26 21:11:20.800 ,4,1,0.,4.8,6.,4.8,1.,4.8,0.,4.8
1979-07-26 21:11:25.600 ,4,1,0.,4.8,5.,4.8,2.,4.8,1.,4.8
1979-07-26 21:11:30.410 ,4,1,0.,4.8,3.,4.8,2.,4.8,1.,4.8
1979-07-26 21:11:35.210 ,7,1,0.,4.8,0.,4.8,0.,4.8,0.,4.8
1979-07-26 21:11:40.010 ,7,1,0.,4.8,2.,4.8,0.,4.8,0.,4.8
1979-07-26 21:11:44.800 ,7,1,0.,4.8,3.,4.8,0.,4.8,1.,4.8
1979-07-26 21:11:49.600 ,7,1,0.,4.8,1.,4.8,0.,4.8,0.,4.8
1979-07-26 21:11:54.410 ,7,1,0.,4.8,0.,4.8,0.,4.8,0.,4.8
1979-07-26 21:11:59.200 ,3,1,0.,4.8,2.,4.8,0.,4.8,0.,4.8
1979-07-26 21:12:04.000 ,3,1,0.,4.8,4.,4.8,1.,4.8,0.,4.8
1979-07-26 21:12:08.800 ,3,1,0.,4.8,2.,4.8,0.,4.8,0.,4.8
1979-07-26 21:12:13.600 ,3,1,0.,4.8,0.,4.8,1.,4.8,0.,4.8
1979-07-26 21:12:18.400 ,3,1,0.,4.8,1.,4.8,0.,4.8,0.,4.8
1979-07-26 21:12:23.200 ,0,1,0.,4.8,8.,4.8,2.,4.8,1.,4.8
1979-07-26 21:12:28.000 ,0,1,0.,4.8,6.,4.8,1.,4.8,0.,4.8
1979-07-26 21:12:32.800 ,0,1,0.,4.8,7.,4.8,0.,4.8,0.,4.8
1979-07-26 21:12:37.600 ,0,1,0.,4.8,8.,4.8,1.,4.8,0.,4.8
1979-07-26 21:12:42.400 ,0,1,0.,4.8,14.,4.8,1.,4.8,0.,4.8
1979-07-26 21:12:47.200 ,4,1,0.,4.8,8.,4.8,0.,4.8,1.,4.8
1979-07-26 21:12:52.000 ,4,1,0.,4.8,11.,4.8,1.,4.8,0.,4.8
1979-07-26 21:12:56.800 ,4,1,0.,4.8,6.,4.8,0.,4.8,0.,4.8
1979-07-26 21:13:01.600 ,4,1,0.,4.8,4.,4.8,0.,4.8,0.,4.8
1979-07-26 21:13:06.400 ,4,1,0.,4.8,4.,4.8,1.,4.8,1.,4.8
1979-07-26 21:13:11.200 ,7,1,0.,4.8,3.,4.8,0.,4.8,0.,4.8
1979-07-26 21:13:16.000 ,7,1,0.,4.8,1.,4.8,0.,4.8,0.,4.8
1979-07-26 21:13:20.800 ,7,1,0.,4.8,2.,4.8,1.,4.8,0.,4.8
1979-07-26 21:13:25.600 ,7,1,0.,4.8,0.,4.8,0.,4.8,0.,4.8
1979-07-26 21:13:30.400 ,7,1,0.,4.8,1.,4.8,0.,4.8,0.,4.8
1979-07-26 21:13:35.200 ,3,1,0.,4.8,1.,4.8,0.,4.8,0.,4.8
1979-07-26 21:13:40.000 ,3,1,0.,4.8,0.,4.8,0.,4.8,0.,4.8
1979-07-26 21:13:44.800 ,3,1,0.,4.8,2.,4.8,1.,4.8,0.,4.8
1979-07-26 21:13:49.600 ,3,1,0.,4.8,0.,4.8,1.,4.8,0.,4.8
1979-07-26 21:13:54.400 ,3,1,0.,4.8,4.,4.8,1.,4.8,0.,4.8
1979-07-26 21:13:59.200 ,0,1,0.,4.8,3.,4.8,1.,4.8,1.,4.8
1979-07-26 21:14:04.000 ,0,1,0.,4.8,5.,4.8,1.,4.8,0.,4.8
1979-07-26 21:14:08.800 ,0,1,0.,4.8,9.,4.8,1.,4.8,1.,4.8
1979-07-26 21:14:13.600 ,0,1,0.,4.8,7.,4.8,1.,4.8,0.,4.8
1979-07-26 21:14:18.400 ,0,1,0.,4.8,6.,4.8,1.,4.8,0.,4.8
1979-07-26 21:14:23.200 ,4,1,0.,4.8,11.,4.8,0.,4.8,0.,4.8
1979-07-26 21:14:28.000 ,4,1,0.,4.8,9.,4.8,1.,4.8,1.,4.8
1979-07-26 21:14:32.800 ,4,1,0.,4.8,8.,4.8,1.,4.8,0.,4.8
1979-07-26 21:14:37.600 ,4,1,0.,4.8,7.,4.8,1.,4.8,2.,4.8
1979-07-26 21:14:42.400 ,4,1,0.,4.8,3.,4.8,0.,4.8,0.,4.8
1979-07-26 21:14:47.200 ,7,1,0.,4.8,2.,4.8,0.,4.8,0.,4.8
1979-07-26 21:14:52.000 ,7,1,0.,4.8,3.,4.8,0.,4.8,0.,4.8
1979-07-26 21:14:56.800 ,7,1,0.,4.8,2.,4.8,0.,4.8,0.,4.8
1979-07-26 21:15:01.600 ,7,1,0.,4.8,0.,4.8,0.,4.8,0.,4.8
1979-07-26 21:15:06.400 ,7,1,0.,4.8,1.,4.8,0.,4.8,0.,4.8
1979-07-26 21:15:11.200 ,3,1,0.,4.8,1.,4.8,0.,4.8,0.,4.8
1979-07-26 21:15:16.000 ,3,1,0.,4.8,7.,4.8,0.,4.8,0.,4.8
1979-07-26 21:15:20.800 ,3,1,0.,4.8,0.,4.8,0.,4.8,1.,4.8
1979-07-26 21:15:25.600 ,3,1,0.,4.8,2.,4.8,0.,4.8,0.,4.8
1979-07-26 21:15:30.400 ,3,1,0.,4.8,2.,4.8,1.,4.8,1.,4.8
1979-07-26 21:15:35.200 ,0,1,0.,4.8,2.,4.8,0.,4.8,1.,4.8
1979-07-26 21:15:40.000 ,0,1,0.,4.8,6.,4.8,0.,4.8,0.,4.8
1979-07-26 21:15:44.800 ,0,1,0.,4.8,9.,4.8,0.,4.8,0.,4.8
1979-07-26 21:15:49.600 ,0,1,0.,4.8,6.,4.8,1.,4.8,1.,4.8
1979-07-26 21:15:54.400 ,0,1,0.,4.8,8.,4.8,1.,4.8,0.,4.8
1979-07-26 21:15:59.200 ,4,1,0.,4.8,6.,4.8,2.,4.8,0.,4.8
1979-07-26 21:16:04.000 ,4,1,0.,4.8,13.,4.8,0.,4.8,0.,4.8
1979-07-26 21:16:08.800 ,4,1,0.,4.8,5.,4.8,0.,4.8,2.,4.8
1979-07-26 21:16:13.600 ,4,1,0.,4.8,4.,4.8,1.,4.8,2.,4.8
1979-07-26 21:16:18.400 ,4,1,0.,4.8,2.,4.8,1.,4.8,0.,4.8
1979-07-26 21:16:23.200 ,7,1,0.,4.8,1.,4.8,0.,4.8,0.,4.8
1979-07-26 21:16:28.000 ,7,1,0.,4.8,2.,4.8,0.,4.8,0.,4.8
1979-07-26 21:16:32.800 ,7,1,0.,4.8,3.,4.8,0.,4.8,0.,4.8
1979-07-26 21:16:37.600 ,7,1,0.,4.8,0.,4.8,0.,4.8,0.,4.8
1979-07-26 21:16:42.400 ,7,1,0.,4.8,2.,4.8,0.,4.8,0.,4.8
1979-07-26 21:16:47.200 ,3,1,0.,4.8,1.,4.8,0.,4.8,0.,4.8
1979-07-26 21:16:52.000 ,3,1,0.,4.8,3.,4.8,0.,4.8,0.,4.8
1979-07-26 21:16:56.800 ,3,1,0.,4.8,3.,4.8,0.,4.8,0.,4.8
1979-07-26 21:17:01.600 ,3,1,0.,4.8,2.,4.8,1.,4.8,0.,4.8
1979-07-26 21:17:06.400 ,3,1,0.,4.8,2.,4.8,1.,4.8,0.,4.8
1979-07-26 21:17:11.200 ,0,1,0.,4.8,3.,4.8,0.,4.8,0.,4.8
1979-07-26 21:17:16.000 ,0,1,0.,4.8,7.,4.8,0.,4.8,0.,4.8
1979-07-26 21:17:20.800 ,0,1,0.,4.8,10.,4.8,2.,4.8,0.,4.8
1979-07-26 21:17:25.600 ,0,1,0.,4.8,7.,4.8,0.,4.8,0.,4.8
1979-07-26 21:17:30.400 ,0,1,0.,4.8,14.,4.8,0.,4.8,1.,4.8
1979-07-26 21:17:35.200 ,0,0,0.,4.8,7.,4.8,0.,4.8,0.,4.8
1979-07-26 21:17:40.000 ,0,0,0.,4.8,15.,4.8,1.,4.8,0.,4.8
1979-07-26 21:17:44.800 ,0,0,0.,4.8,6.,4.8,0.,4.8,0.,4.8
1979-07-26 21:17:49.600 ,0,0,0.,4.8,4.,4.8,0.,4.8,0.,4.8
1979-07-26 21:17:54.400 ,0,0,0.,4.8,1.,4.8,1.,4.8,0.,4.8
1979-07-26 21:17:59.200 ,0,0,0.,4.8,1.,4.8,0.,4.8,0.,4.8
1979-07-26 21:18:04.000 ,0,0,0.,4.8,2.,4.8,1.,4.8,0.,4.8
1979-07-26 21:18:08.800 ,0,0,0.,4.8,3.,4.8,0.,4.8,0.,4.8
1979-07-26 21:18:13.600 ,0,0,0.,4.8,0.,4.8,0.,4.8,0.,4.8
1979-07-26 21:18:18.400 ,0,0,0.,4.8,1.,4.8,0.,4.8,0.,4.8
1979-07-26 21:18:23.200 ,5,0,0.,4.8,1.,4.8,0.,4.8,0.,4.8
1979-07-26 21:18:28.000 ,5,0,0.,4.8,6.,4.8,0.,4.8,1.,4.8
1979-07-26 21:18:32.800 ,5,0,0.,4.8,2.,4.8,0.,4.8,0.,4.8
1979-07-26 21:18:37.600 ,5,0,0.,4.8,2.,4.8,0.,4.8,0.,4.8
1979-07-26 21:18:42.400 ,5,0,0.,4.8,0.,4.8,1.,4.8,0.,4.8
1979-07-26 21:18:47.200 ,5,0,0.,4.8,1.,4.8,0.,4.8,1.,4.8
1979-07-26 21:18:52.000 ,5,0,0.,4.8,0.,4.8,0.,4.8,0.,4.8
1979-07-26 21:18:56.800 ,5,0,0.,4.8,5.,4.8,0.,4.8,0.,4.8
1979-07-26 21:19:01.600 ,5,0,0.,4.8,1.,4.8,0.,4.8,0.,4.8
1979-07-26 21:19:06.400 ,5,0,0.,4.8,1.,4.8,0.,4.8,0.,4.8
1979-07-26 21:19:11.200 ,4,0,0.,4.8,1.,4.8,1.,4.8,1.,4.8
1979-07-26 21:19:16.000 ,4,0,0.,4.8,4.,4.8,0.,4.8,0.,4.8
1979-07-26 21:19:20.800 ,4,0,0.,4.8,1.,4.8,0.,4.8,0.,4.8
1979-07-26 21:19:25.600 ,4,0,0.,4.8,0.,4.8,1.,4.8,0.,4.8
1979-07-26 21:19:30.400 ,4,0,0.,4.8,4.,4.8,1.,4.8,0.,4.8
1979-07-26 21:19:35.200 ,4,0,0.,4.8,1.,4.8,0.,4.8,0.,4.8
1979-07-26 21:19:40.000 ,4,0,0.,4.8,5.,4.8,0.,4.8,0.,4.8
1979-07-26 21:19:44.800 ,4,0,0.,4.8,4.,4.8,0.,4.8,0.,4.8
1979-07-26 21:19:49.600 ,4,0,0.,4.8,4.,4.8,0.,4.8,1.,4.8
1979-07-26 21:19:54.400 ,4,0,0.,4.8,1.,4.8,0.,4.8,0.,4.8
1979-07-26 21:19:59.200 ,3,0,0.,4.8,2.,4.8,1.,4.8,0.,4.8
1979-07-26 21:20:04.000 ,3,0,0.,4.8,1.,4.8,0.,4.8,0.,4.8
1979-07-26 21:20:08.800 ,3,0,0.,4.8,3.,4.8,2.,4.8,0.,4.8
1979-07-26 21:20:13.600 ,3,0,0.,4.8,2.,4.8,0.,4.8,1.,4.8
1979-07-26 21:20:18.400 ,3,0,0.,4.8,3.,4.8,0.,4.8,0.,4.8
1979-07-26 21:20:23.200 ,3,0,0.,4.8,6.,4.8,1.,4.8,0.,4.8
1979-07-26 21:20:28.000 ,3,0,0.,4.8,3.,4.8,2.,4.8,1.,4.8
1979-07-26 21:20:32.800 ,3,0,0.,4.8,1.,4.8,1.,4.8,1.,4.8
1979-07-26 21:20:37.600 ,3,0,0.,4.8,5.,4.8,0.,4.8,0.,4.8
1979-07-26 21:20:42.400 ,3,0,0.,4.8,5.,4.8,1.,4.8,2.,4.8
1979-07-26 21:20:47.200 ,2,0,0.,4.8,6.,4.8,1.,4.8,2.,4.8
1979-07-26 21:20:52.000 ,2,0,0.,4.8,5.,4.8,1.,4.8,0.,4.8
1979-07-26 21:20:56.800 ,2,0,0.,4.8,5.,4.8,0.,4.8,0.,4.8
1979-07-26 21:21:01.600 ,2,0,0.,4.8,3.,4.8,0.,4.8,0.,4.8
1979-07-26 21:21:06.400 ,2,0,0.,4.8,3.,4.8,2.,4.8,0.,4.8
1979-07-26 21:21:11.200 ,2,0,0.,4.8,5.,4.8,0.,4.8,0.,4.8
1979-07-26 21:21:16.000 ,2,0,0.,4.8,4.,4.8,0.,4.8,0.,4.8
1979-07-26 21:21:20.800 ,2,0,0.,4.8,6.,4.8,0.,4.8,0.,4.8
1979-07-26 21:21:25.600 ,2,0,0.,4.8,7.,4.8,0.,4.8,1.,4.8
1979-07-26 21:21:30.400 ,2,0,0.,4.8,4.,4.8,0.,4.8,2.,4.8
1979-07-26 21:21:35.200 ,1,0,0.,4.8,1.,4.8,1.,4.8,0.,4.8
1979-07-26 21:21:40.000 ,1,0,0.,4.8,8.,4.8,0.,4.8,0.,4.8
1979-07-26 21:21:44.800 ,1,0,0.,4.8,4.,4.8,0.,4.8,0.,4.8
1979-07-26 21:21:49.600 ,1,0,0.,4.8,5.,4.8,0.,4.8,0.,4.8
1979-07-26 21:21:54.400 ,1,0,0.,4.8,8.,4.8,0.,4.8,1.,4.8
1979-07-26 21:21:59.200 ,1,0,0.,4.8,8.,4.8,0.,4.8,0.,4.8
1979-07-26 21:22:04.000 ,1,0,0.,4.8,11.,4.8,1.,4.8,0.,4.8
1979-07-26 21:22:08.800 ,1,0,0.,4.8,16.,4.8,0.,4.8,0.,4.8
1979-07-26 21:22:13.600 ,1,0,0.,4.8,7.,4.8,2.,4.8,0.,4.8
1979-07-26 21:22:18.400 ,1,0,0.,4.8,9.,4.8,1.,4.8,1.,4.8
1979-07-26 21:22:23.200 ,0,0,0.,4.8,7.,4.8,1.,4.8,0.,4.8
1979-07-26 21:22:28.000 ,0,0,0.,4.8,7.,4.8,1.,4.8,1.,4.8
1979-07-26 21:22:32.800 ,0,0,0.,4.8,11.,4.8,1.,4.8,0.,4.8
1979-07-26 21:22:37.600 ,0,0,0.,4.8,7.,4.8,0.,4.8,0.,4.8
1979-07-26 21:22:42.400 ,0,0,0.,4.8,7.,4.8,0.,4.8,0.,4.8
1979-07-26 21:22:47.200 ,0,0,0.,4.8,9.,4.8,0.,4.8,0.,4.8
1979-07-26 21:22:52.000 ,0,0,0.,4.8,8.,4.8,2.,4.8,0.,4.8
1979-07-26 21:22:56.800 ,0,0,0.,4.8,9.,4.8,0.,4.8,0.,4.8
1979-07-26 21:23:01.600 ,0,0,0.,4.8,8.,4.8,2.,4.8,0.,4.8
1979-07-26 21:23:06.400 ,0,0,0.,4.8,4.,4.8,0.,4.8,0.,4.8
1979-07-26 21:23:11.200 ,0,0,0.,4.8,10.,4.8,1.,4.8,1.,4.8
1979-07-26 21:23:16.000 ,0,0,0.,4.8,14.,4.8,0.,4.8,0.,4.8
1979-07-26 21:23:20.800 ,0,0,0.,4.8,13.,4.8,0.,4.8,0.,4.8
1979-07-26 21:23:25.600 ,0,0,0.,4.8,9.,4.8,0.,4.8,1.,4.8
1979-07-26 21:23:30.400 ,0,0,0.,4.8,7.,4.8,0.,4.8,0.,4.8
1979-07-26 21:23:35.200 ,0,0,0.,4.8,10.,4.8,1.,4.8,0.,4.8
1979-07-26 21:23:40.000 ,0,0,0.,4.8,8.,4.8,0.,4.8,0.,4.8
1979-07-26 21:23:44.800 ,0,0,0.,4.8,12.,4.8,0.,4.8,0.,4.8
1979-07-26 21:23:49.600 ,0,0,0.,4.8,12.,4.8,0.,4.8,1.,4.8
1979-07-26 21:23:54.400 ,0,0,0.,4.8,5.,4.8,0.,4.8,0.,4.8
1979-07-26 21:23:59.200 ,1,0,0.,4.8,8.,4.8,0.,4.8,0.,4.8
1979-07-26 21:24:04.000 ,1,0,0.,4.8,9.,4.8,1.,4.8,0.,4.8
1979-07-26 21:24:08.800 ,1,0,0.,4.8,5.,4.8,0.,4.8,0.,4.8
1979-07-26 21:24:13.600 ,1,0,0.,4.8,8.,4.8,1.,4.8,0.,4.8
1979-07-26 21:24:18.400 ,1,0,0.,4.8,7.,4.8,0.,4.8,0.,4.8
1979-07-26 21:24:23.200 ,1,0,0.,4.8,8.,4.8,0.,4.8,0.,4.8
1979-07-26 21:24:28.000 ,1,0,0.,4.8,8.,4.8,1.,4.8,1.,4.8
1979-07-26 21:24:32.800 ,1,0,0.,4.8,4.,4.8,1.,4.8,1.,4.8
1979-07-26 21:24:37.600 ,1,0,0.,4.8,6.,4.8,1.,4.8,0.,4.8
1979-07-26 21:24:42.400 ,1,0,0.,4.8,10.,4.8,0.,4.8,1.,4.8
1979-07-26 21:24:47.200 ,2,0,0.,4.8,4.,4.8,0.,4.8,0.,4.8
1979-07-26 21:24:52.000 ,2,0,0.,4.8,3.,4.8,0.,4.8,1.,4.8
1979-07-26 21:24:56.800 ,2,0,0.,4.8,6.,4.8,0.,4.8,0.,4.8
1979-07-26 21:25:01.600 ,2,0,0.,4.8,8.,4.8,0.,4.8,1.,4.8
1979-07-26 21:25:06.400 ,2,0,0.,4.8,3.,4.8,1.,4.8,0.,4.8
1979-07-26 21:25:11.200 ,2,0,0.,4.8,9.,4.8,0.,4.8,0.,4.8
1979-07-26 21:25:16.000 ,2,0,0.,4.8,5.,4.8,0.,4.8,0.,4.8
1979-07-26 21:25:20.800 ,2,0,0.,4.8,8.,4.8,0.,4.8,1.,4.8
1979-07-26 21:25:25.600 ,2,0,0.,4.8,3.,4.8,0.,4.8,0.,4.8
1979-07-26 21:25:30.400 ,2,0,0.,4.8,8.,4.8,0.,4.8,1.,4.8
1979-07-26 21:25:35.200 ,3,0,0.,4.8,6.,4.8,0.,4.8,0.,4.8
1979-07-26 21:25:40.000 ,3,0,0.,4.8,5.,4.8,0.,4.8,0.,4.8
1979-07-26 21:25:44.800 ,3,0,0.,4.8,6.,4.8,1.,4.8,1.,4.8
1979-07-26 21:25:49.600 ,3,0,0.,4.8,7.,4.8,0.,4.8,0.,4.8
1979-07-26 21:25:54.400 ,3,0,0.,4.8,4.,4.8,1.,4.8,0.,4.8
1979-07-26 21:25:59.200 ,3,0,0.,4.8,6.,4.8,0.,4.8,0.,4.8
1979-07-26 21:26:04.000 ,3,0,0.,4.8,5.,4.8,2.,4.8,0.,4.8
1979-07-26 21:26:08.800 ,3,0,0.,4.8,3.,4.8,3.,4.8,1.,4.8
1979-07-26 21:26:13.600 ,3,0,0.,4.8,4.,4.8,1.,4.8,0.,4.8
1979-07-26 21:26:18.400 ,3,0,0.,4.8,2.,4.8,2.,4.8,2.,4.8
1979-07-26 21:26:23.200 ,4,0,0.,4.8,5.,4.8,2.,4.8,0.,4.8
1979-07-26 21:26:28.000 ,4,0,0.,4.8,6.,4.8,1.,4.8,0.,4.8
1979-07-26 21:26:32.800 ,4,0,0.,4.8,1.,4.8,1.,4.8,0.,4.8
1979-07-26 21:26:37.600 ,4,0,0.,4.8,2.,4.8,1.,4.8,0.,4.8
1979-07-26 21:26:42.400 ,4,0,0.,4.8,2.,4.8,1.,4.8,1.,4.8
1979-07-26 21:26:47.200 ,4,0,0.,4.8,2.,4.8,0.,4.8,1.,4.8
1979-07-26 21:26:52.000 ,4,0,0.,4.8,2.,4.8,0.,4.8,1.,4.8
1979-07-26 21:26:56.800 ,4,0,0.,4.8,6.,4.8,0.,4.8,0.,4.8
1979-07-26 21:27:01.600 ,4,0,0.,4.8,3.,4.8,0.,4.8,1.,4.8
1979-07-26 21:27:06.400 ,4,0,0.,4.8,4.,4.8,1.,4.8,0.,4.8
1979-07-26 21:27:11.200 ,5,0,0.,4.8,0.,4.8,0.,4.8,0.,4.8
1979-07-26 21:27:16.000 ,5,0,0.,4.8,6.,4.8,1.,4.8,1.,4.8
1979-07-26 21:27:20.800 ,5,0,0.,4.8,1.,4.8,0.,4.8,0.,4.8
1979-07-26 21:27:25.600 ,5,0,0.,4.8,0.,4.8,1.,4.8,0.,4.8
1979-07-26 21:27:30.400 ,5,0,0.,4.8,5.,4.8,2.,4.8,0.,4.8
1979-07-26 21:27:35.200 ,5,0,0.,4.8,4.,4.8,0.,4.8,0.,4.8
1979-07-26 21:27:40.000 ,5,0,0.,4.8,1.,4.8,0.,4.8,1.,4.8
1979-07-26 21:27:44.800 ,5,0,0.,4.8,4.,4.8,1.,4.8,0.,4.8
1979-07-26 21:27:49.600 ,5,0,0.,4.8,2.,4.8,1.,4.8,0.,4.8
1979-07-26 21:27:54.400 ,5,0,0.,4.8,4.,4.8,1.,4.8,0.,4.8
1979-07-26 21:27:59.200 ,6,0,0.,4.8,3.,4.8,0.,4.8,0.,4.8
1979-07-26 21:28:04.000 ,6,0,0.,4.8,0.,4.8,0.,4.8,0.,4.8
1979-07-26 21:28:08.800 ,6,0,0.,4.8,2.,4.8,0.,4.8,0.,4.8
1979-07-26 21:28:13.600 ,6,0,0.,4.8,0.,4.8,0.,4.8,1.,4.8
1979-07-26 21:28:18.400 ,6,0,0.,4.8,2.,4.8,1.,4.8,0.,4.8
1979-07-26 21:28:23.200 ,6,0,0.,4.8,4.,4.8,0.,4.8,0.,4.8
1979-07-26 21:28:28.000 ,6,0,0.,4.8,1.,4.8,0.,4.8,0.,4.8
1979-07-26 21:28:32.800 ,6,0,0.,4.8,3.,4.8,0.,4.8,0.,4.8
1979-07-26 21:28:37.600 ,6,0,0.,4.8,3.,4.8,2.,4.8,0.,4.8
1979-07-26 21:28:42.400 ,6,0,0.,4.8,1.,4.8,0.,4.8,0.,4.8
1979-07-26 21:28:47.200 ,7,0,0.,4.8,3.,4.8,0.,4.8,0.,4.8
1979-07-26 21:28:52.000 ,7,0,0.,4.8,7.,4.8,0.,4.8,0.,4.8
1979-07-26 21:28:56.800 ,7,0,0.,4.8,0.,4.8,1.,4.8,0.,4.8
1979-07-26 21:29:01.600 ,7,0,0.,4.8,0.,4.8,0.,4.8,1.,4.8
1979-07-26 21:29:06.400 ,7,0,0.,4.8,1.,4.8,0.,4.8,1.,4.8
1979-07-26 21:29:11.200 ,7,0,0.,4.8,1.,4.8,0.,4.8,0.,4.8
1979-07-26 21:29:16.000 ,7,0,0.,4.8,0.,4.8,0.,4.8,0.,4.8
1979-07-26 21:29:20.800 ,7,0,0.,4.8,0.,4.8,1.,4.8,0.,4.8
1979-07-26 21:29:25.600 ,7,0,0.,4.8,0.,4.8,0.,4.8,0.,4.8
1979-07-26 21:29:30.400 ,7,0,0.,4.8,1.,4.8,0.,4.8,0.,4.8
1979-07-26 21:29:35.200 ,7,0,0.,4.8,1.,4.8,0.,4.8,0.,4.8
1979-07-26 21:29:40.000 ,7,0,0.,4.8,0.,4.8,0.,4.8,0.,4.8
1979-07-26 21:29:44.800 ,7,0,0.,4.8,1.,4.8,0.,4.8,1.,4.8
1979-07-26 21:29:49.600 ,7,0,0.,4.8,1.,4.8,0.,4.8,0.,4.8
1979-07-26 21:29:54.400 ,7,0,0.,4.8,0.,4.8,0.,4.8,0.,4.8
1979-07-26 21:29:59.200 ,7,0,0.,4.8,1.,4.8,0.,4.8,0.,4.8
1979-07-26 21:30:04.000 ,7,0,0.,4.8,0.,4.8,0.,4.8,0.,4.8
1979-07-26 21:30:08.800 ,7,0,0.,4.8,1.,4.8,0.,4.8,0.,4.8
1979-07-26 21:30:13.600 ,7,0,0.,4.8,1.,4.8,0.,4.8,0.,4.8
1979-07-26 21:30:18.400 ,7,0,0.,4.8,0.,4.8,0.,4.8,0.,4.8
1979-07-26 21:30:23.200 ,6,0,0.,4.8,1.,4.8,0.,4.8,0.,4.8
1979-07-26 21:30:28.000 ,6,0,0.,4.8,0.,4.8,0.,4.8,1.,4.8
1979-07-26 21:30:32.800 ,6,0,0.,4.8,5.,4.8,0.,4.8,0.,4.8
1979-07-26 21:30:37.600 ,6,0,0.,4.8,0.,4.8,0.,4.8,0.,4.8
1979-07-26 21:30:42.400 ,6,0,0.,4.8,3.,4.8,1.,4.8,0.,4.8
1979-07-26 21:30:47.200 ,6,0,0.,4.8,4.,4.8,0.,4.8,0.,4.8
1979-07-26 21:30:52.000 ,6,0,0.,4.8,2.,4.8,1.,4.8,0.,4.8
1979-07-26 21:30:56.800 ,6,0,0.,4.8,0.,4.8,0.,4.8,0.,4.8
1979-07-26 21:31:01.600 ,6,0,0.,4.8,3.,4.8,0.,4.8,0.,4.8
1979-07-26 21:31:06.400 ,6,0,0.,4.8,2.,4.8,0.,4.8,0.,4.8
1979-07-26 21:31:11.200 ,5,0,0.,4.8,4.,4.8,0.,4.8,0.,4.8
1979-07-26 21:31:16.000 ,5,0,0.,4.8,1.,4.8,0.,4.8,1.,4.8
1979-07-26 21:31:20.800 ,5,0,0.,4.8,1.,4.8,1.,4.8,0.,4.8
1979-07-26 21:31:25.600 ,5,0,0.,4.8,1.,4.8,0.,4.8,0.,4.8
1979-07-26 21:31:30.400 ,5,0,0.,4.8,3.,4.8,1.,4.8,0.,4.8
1979-07-26 21:31:35.200 ,5,0,0.,4.8,4.,4.8,0.,4.8,0.,4.8
1979-07-26 21:31:40.000 ,5,0,0.,4.8,1.,4.8,0.,4.8,0.,4.8
1979-07-26 21:31:44.800 ,5,0,0.,4.8,1.,4.8,0.,4.8,0.,4.8
1979-07-26 21:31:49.600 ,5,0,0.,4.8,6.,4.8,0.,4.8,0.,4.8
1979-07-26 21:31:54.400 ,5,0,0.,4.8,0.,4.8,0.,4.8,0.,4.8
1979-07-26 21:31:59.200 ,4,0,0.,4.8,1.,4.8,1.,4.8,0.,4.8
1979-07-26 21:32:04.000 ,4,0,0.,4.8,1.,4.8,1.,4.8,0.,4.8
1979-07-26 21:32:08.800 ,4,0,0.,4.8,5.,4.8,1.,4.8,0.,4.8
1979-07-26 21:32:13.600 ,4,0,0.,4.8,6.,4.8,0.,4.8,2.,4.8
1979-07-26 21:32:18.400 ,4,0,0.,4.8,1.,4.8,1.,4.8,0.,4.8
1979-07-26 21:32:23.200 ,4,0,0.,4.8,1.,4.8,2.,4.8,0.,4.8
1979-07-26 21:32:28.000 ,4,0,0.,4.8,1.,4.8,0.,4.8,1.,4.8
1979-07-26 21:32:32.800 ,4,0,0.,4.8,5.,4.8,0.,4.8,1.,4.8
1979-07-26 21:32:37.600 ,4,0,0.,4.8,5.,4.8,0.,4.8,1.,4.8
1979-07-26 21:32:42.400 ,4,0,0.,4.8,0.,4.8,0.,4.8,0.,4.8
1979-07-26 21:32:47.200 ,3,0,0.,4.8,4.,4.8,0.,4.8,0.,4.8
1979-07-26 21:32:52.000 ,3,0,0.,4.8,1.,4.8,0.,4.8,0.,4.8
1979-07-26 21:32:56.800 ,3,0,0.,4.8,2.,4.8,1.,4.8,0.,4.8
1979-07-26 21:33:01.600 ,3,0,0.,4.8,5.,4.8,2.,4.8,0.,4.8
1979-07-26 21:33:06.400 ,3,0,0.,4.8,6.,4.8,1.,4.8,0.,4.8
1979-07-26 21:33:11.200 ,3,0,0.,4.8,2.,4.8,2.,4.8,0.,4.8
1979-07-26 21:33:16.000 ,3,0,0.,4.8,4.,4.8,1.,4.8,0.,4.8